Total_Precipitation_Accumulation
0.12 0.22 0.24 0.24 0.23 0.19 0.15 0.12 0.22 0.26 0.37 0.46 0.49 0.62 0.79 0.96 0.96 0.89 0.74 0.65 0.73 0.73 0.77 0.80 0.81 0.89 0.84 0.84 0.89 1.02 1.20 1.32 1.46 1.46 1.44 1.43 1.48 1.53 1.56 1.65 1.65 1.71 1.77 1.79
0.16 0.19 0.25 0.28 0.26 0.19 0.14 0.12 0.16 0.24 0.38 0.50 0.58 0.68 0.76 0.73 0.68 0.61 0.56 0.46 0.44 0.61 0.70 0.66 0.65 0.69 0.64 0.70 0.83 0.97 1.07 1.18 1.38 1.51 1.54 1.54 1.58 1.66 1.71 1.71 1.72 1.75 1.72 1.76
0.25 0.25 0.25 0.34 0.33 0.24 0.15 0.14 0.20 0.32 0.49 0.65 0.56 0.59 0.66 0.64 0.62 0.59 0.57 0.41 0.35 0.43 0.58 0.57 0.58 0.59 0.69 0.82 0.95 1.07 1.21 1.35 1.52 1.62 1.71 1.72 1.68 1.78 1.75 1.76 1.80 1.77 1.70 1.68
0.31 0.43 0.52 0.37 0.30 0.29 0.29 0.26 0.28 0.40 0.42 0.56 0.57 0.63 0.75 0.74 0.72 0.57 0.51 0.41 0.36 0.38 0.43 0.49 0.56 0.63 0.78 1.05 1.27 1.31 1.46 1.64 1.74 1.84 1.81 1.79 1.78 1.81 1.88 1.95 1.97 1.93 1.87 1.79
0.47 0.61 0.52 0.45 0.32 0.36 0.41 0.54 0.56 0.64 0.61 0.56 0.56 0.67 0.76 0.66 0.58 0.59 0.49 0.44 0.44 0.43 0.49 0.59 0.63 0.68 0.89 1.11 1.36 1.49 1.55 1.68 1.85 1.95 1.99 2.01 2.03 1.98 2.03 2.11 2.06 1.98 1.94 1.98
0.59 0.74 0.73 0.61 0.48 0.47 0.58 1.03 0.86 0.79 0.81 0.69 0.65 0.78 0.87 0.81 0.73 0.67 0.59 0.55 0.55 0.56 0.65 0.80 0.90 0.94 1.08 1.19 1.34 1.51 1.59 1.71 1.89 2.11 2.17 2.20 2.34 2.41 2.33 2.28 2.14 2.14 2.14 2.13
0.74 0.80 0.87 0.74 0.68 0.71 1.11 1.39 1.08 0.91 0.87 0.85 0.96 0.97 0.91 0.81 0.81 0.75 0.64 0.67 0.65 0.67 0.79 0.99 1.13 1.19 1.28 1.42 1.52 1.54 1.63 1.76 1.95 2.14 2.24 2.31 2.47 2.53 2.49 2.44 2.40 2.34 2.27 2.30
0.89 1.08 1.25 0.87 0.84 1.24 1.50 1.26 1.25 1.21 1.13 1.02 1.00 0.95 0.91 0.82 0.80 0.75 0.72 0.77 0.78 0.83 0.97 1.19 1.36 1.32 1.37 1.44 1.48 1.53 1.55 1.67 1.80 1.97 2.02 2.11 2.36 2.44 2.50 2.52 2.47 2.38 2.31 2.19
1.20 1.32 1.22 1.02 1.10 1.27 1.39 1.55 1.46 1.34 1.35 1.16 1.11 1.03 0.93 0.85 0.82 0.80 0.76 0.82 0.85 0.91 1.11 1.36 1.51 1.53 1.59 1.48 1.54 1.57 1.60 1.73 1.87 1.95 2.02 2.14 2.23 2.25 2.32 2.40 2.36 2.25 2.22 2.15
1.37 1.41 1.33 1.19 1.06 1.00 1.13 1.24 1.22 1.22 1.22 1.17 1.13 1.07 0.99 0.88 0.81 0.81 0.81 0.77 0.81 0.90 0.99 1.10 1.30 1.47 1.56 1.61 1.66 1.66 1.68 1.73 1.81 1.93 1.94 1.98 2.11 2.20 2.30 2.41 2.48 2.37 2.26 2.17
1.62 1.53 1.41 1.41 1.30 1.18 1.26 1.32 1.24 1.17 1.14 1.14 1.11 1.06 0.93 0.90 0.88 0.86 0.84 0.80 0.82 0.90 0.91 0.97 1.07 1.19 1.28 1.38 1.49 1.54 1.57 1.62 1.67 1.70 1.78 1.87 1.92 2.00 2.02 2.12 2.13 2.11 2.06 2.04
1.96 1.71 1.55 1.52 1.40 1.29 1.35 1.33 1.40 1.48 1.41 1.19 1.07 1.15 1.08 0.95 0.86 0.85 0.87 0.87 0.88 0.89 0.86 0.89 0.96 1.12 1.23 1.33 1.46 1.57 1.64 1.66 1.59 1.55 1.61 1.66 1.70 1.69 1.70 1.65 1.66 1.62 1.63 1.63
1.62 1.45 1.41 1.40 1.37 1.29 1.29 1.23 1.23 1.34 1.36 1.24 1.18 1.15 1.20 1.09 1.01 0.94 0.88 0.82 0.84 0.89 0.88 0.90 0.94 1.05 1.14 1.23 1.33 1.43 1.53 1.59 1.58 1.55 1.59 1.58 1.58 1.61 1.64 1.59 1.50 1.44 1.41 1.40
1.41 1.37 1.38 1.32 1.25 1.25 1.27 1.20 1.09 1.10 1.17 1.20 1.24 1.27 1.36 1.28 1.15 1.07 1.02 0.93 0.86 0.85 0.85 0.87 0.95 0.97 1.06 1.14 1.20 1.25 1.32 1.40 1.51 1.61 1.64 1.67 1.69 1.73 1.79 1.84 1.77 1.59 1.44 1.35
1.49 1.37 1.28 1.15 1.16 1.20 1.18 1.12 1.04 1.01 1.15 1.31 1.29 1.25 1.29 1.20 1.13 1.07 0.99 0.94 0.90 0.89 0.93 0.93 0.98 1.00 1.06 1.15 1.22 1.23 1.25 1.29 1.32 1.38 1.46 1.54 1.55 1.58 1.66 1.74 1.76 1.64 1.48 1.36
1.57 1.43 1.25 1.11 1.15 1.25 1.27 1.24 1.14 1.04 1.00 1.16 1.26 1.20 1.17 1.09 1.00 1.01 1.03 1.03 1.06 1.06 1.07 1.07 1.11 1.05 1.10 1.18 1.25 1.28 1.24 1.27 1.27 1.24 1.25 1.28 1.32 1.39 1.47 1.55 1.60 1.52 1.40 1.27
1.59 1.53 1.38 1.19 1.12 1.11 1.15 1.20 1.16 1.08 0.97 0.99 1.08 1.14 1.15 1.09 0.98 0.96 0.99 1.03 1.08 1.08 1.08 1.12 1.17 1.17 1.24 1.29 1.31 1.31 1.25 1.23 1.21 1.19 1.21 1.22 1.27 1.32 1.35 1.38 1.42 1.35 1.23 1.08
1.43 1.36 1.26 1.16 1.06 1.03 1.06 1.06 1.05 1.05 1.01 0.98 0.98 1.01 1.05 1.12 1.14 1.09 1.03 1.03 1.04 1.01 0.97 0.97 1.04 1.12 1.25 1.37 1.41 1.38 1.24 1.13 1.08 1.08 1.15 1.20 1.22 1.29 1.32 1.29 1.24 1.17 1.07 0.91
1.27 1.24 1.16 1.09 1.06 1.03 1.03 1.00 1.00 1.01 0.95 0.90 0.96 1.02 1.06 1.11 1.21 1.19 1.11 1.12 1.18 1.20 1.07 0.97 1.04 1.03 1.11 1.33 1.47 1.47 1.32 1.16 1.05 1.03 1.05 1.05 1.07 1.14 1.19 1.15 1.07 1.01 0.94 0.89
1.27 1.30 1.31 1.26 1.18 1.14 1.08 0.99 0.98 0.99 0.96 0.93 0.95 1.00 1.09 1.10 1.19 1.25 1.25 1.19 1.19 1.27 1.24 1.16 1.03 0.94 0.97 1.17 1.45 1.41 1.33 1.23 1.09 0.98 1.00 1.05 1.06 1.10 1.12 1.10 1.02 0.95 0.92 0.88
1.33 1.39 1.38 1.35 1.28 1.18 1.07 0.98 1.00 1.02 0.98 1.01 1.03 1.06 1.13 1.12 1.09 1.20 1.31 1.21 1.11 1.21 1.30 1.26 1.06 0.93 0.92 1.08 1.34 1.35 1.28 1.22 1.11 1.00 0.97 0.98 1.00 1.03 1.05 1.04 0.99 0.91 0.89 0.88
1.50 1.56 1.46 1.31 1.24 1.15 1.04 0.97 0.94 0.95 0.95 1.01 1.07 1.13 1.27 1.28 1.22 1.20 1.17 1.14 1.13 1.25 1.26 1.20 1.10 0.97 0.87 0.90 1.00 1.11 1.10 1.04 0.95 0.88 0.82 0.83 0.90 0.97 0.98 0.98 0.96 0.92 0.90 0.89
1.51 1.48 1.39 1.21 1.15 1.02 0.88 0.86 0.85 0.86 0.89 0.97 1.10 1.26 1.48 1.48 1.39 1.43 1.27 1.02 1.01 1.17 1.15 1.06 1.05 0.96 0.87 0.81 0.86 0.92 0.95 0.96 0.90 0.79 0.70 0.71 0.76 0.83 0.87 0.83 0.82 0.82 0.77 0.70
1.31 1.24 1.16 1.04 1.04 1.00 0.94 0.92 0.89 0.90 0.91 0.95 1.01 1.19 1.46 1.61 1.44 1.21 1.13 1.09 1.06 1.04 0.99 1.00 0.98 0.91 0.86 0.80 0.81 0.87 0.94 0.96 0.90 0.82 0.73 0.73 0.74 0.77 0.80 0.77 0.75 0.72 0.67 0.67
1.27 1.09 0.99 1.01 1.11 1.19 1.13 1.09 1.09 1.11 1.11 1.08 1.03 1.09 1.24 1.47 1.49 1.19 0.99 0.91 0.94 0.93 0.88 0.95 0.96 0.94 0.80 0.72 0.75 0.86 0.94 0.99 0.99 0.93 0.86 0.86 0.84 0.84 0.85 0.83 0.84 0.82 0.80 0.78
1.22 1.11 1.05 1.03 1.08 1.23 1.28 1.31 1.39 1.43 1.45 1.49 1.43 1.31 1.31 1.36 1.28 1.13 0.96 0.82 0.82 0.89 0.84 0.88 0.92 0.93 0.80 0.74 0.76 0.83 0.90 0.97 1.01 1.02 1.00 0.95 0.93 0.93 0.94 0.92 0.91 0.89 0.85 0.80
1.25 1.15 1.11 1.07 1.07 1.19 1.34 1.48 1.60 1.66 1.75 1.90 1.88 1.58 1.47 1.48 1.40 1.28 1.11 0.99 1.01 1.05 1.00 0.93 0.86 0.83 0.85 0.90 0.88 0.82 0.86 0.96 0.98 1.01 1.06 0.99 0.93 0.90 0.91 0.88 0.83 0.80 0.75 0.68